Wind_Speed
30 29 29 28 27 27 27 28 28 28 26 25 22 20 18 17 16 16 17 17 16 16 15 14 14 13 13 13 13 13 13 13 14 14 14 15 15 16 16 16 17 17 17 17 17 17 17 17 17 17 17 17 16 16 16 16 16 16 16 16 16 16 16 16 16 16 16 16 16 16 16 16 16 17 17 18 18 19 19 19 19 19 19 19 19 19
30 29 28 27 27 27 27 27 27 26 25 23 21 19 17 17 16 17 17 16 16 15 15 14 13 13 13 13 13 14 14 14 14 14 15 15 16 16 16 17 17 17 17 17 17 18 18 18 18 17 17 17 17 16 16 16 16 16 16 16 16 16 16 16 16 16 16 16 16 16 16 16 16 16 17 17 18 19 19 20 20 20 20 20 20 20
30 28 27 27 27 27 27 27 26 25 23 21 20 18 17 17 17 17 16 16 15 15 14 14 13 13 13 14 14 14 14 14 15 15 15 16 16 16 17 17 17 18 18 18 18 18 18 18 18 18 17 17 17 16 16 16 16 16 17 17 17 17 17 17 17 16 16 16 16 16 16 16 16 16 17 17 17 18 19 19 20 20 20 21 21 21
29 27 26 26 27 27 27 26 25 23 21 20 19 18 17 17 17 16 16 15 15 14 14 14 14 14 14 14 14 15 15 15 15 16 16 16 17 17 17 17 18 18 18 18 18 18 18 18 18 18 17 17 17 17 17 17 17 17 17 17 17 17 17 17 17 17 17 17 16 16 16 17 17 17 17 17 17 17 18 19 19 20 20 20 21 21
27 26 26 26 27 27 27 25 23 21 20 19 18 17 17 17 16 16 15 15 14 14 14 14 14 14 14 15 15 15 15 15 16 16 16 17 17 17 17 17 18 18 18 18 18 18 18 18 18 18 17 17 17 17 17 17 17 17 17 17 17 17 17 17 17 17 17 17 17 17 17 17 17 17 17 17 17 18 18 18 18 19 19 20 20 21
26 26 26 27 27 27 25 24 22 20 19 18 17 17 17 17 16 16 15 14 14 14 15 15 15 15 15 16 16 16 16 16 16 16 17 17 17 17 17 18 18 18 18 18 18 18 18 18 18 17 17 17 17 17 17 17 17 17 17 17 17 17 17 17 17 17 17 17 17 17 17 17 18 18 18 18 18 18 18 18 18 19 19 19 20 20
26 26 27 27 27 26 24 22 20 19 18 17 17 17 17 17 16 15 15 14 14 15 15 15 16 16 16 17 17 17 17 17 17 17 17 17 18 18 18 18 18 18 18 18 18 18 18 18 17 17 17 17 17 17 17 17 17 17 17 17 17 17 17 17 17 17 17 17 17 18 18 18 18 18 18 18 18 18 19 19 19 19 19 19 19 20
27 27 27 27 26 24 22 20 19 18 17 17 17 17 17 16 16 15 15 15 15 15 15 16 16 17 17 17 17 17 17 17 17 18 18 18 18 18 18 18 18 18 18 18 18 18 18 17 17 17 17 17 17 17 17 17 17 17 17 17 17 17 17 17 17 17 17 18 18 18 18 18 18 18 18 18 19 19 19 19 19 19 19 19 19 20
27 27 27 26 24 22 20 19 18 17 17 17 17 17 16 16 16 15 15 15 15 16 16 17 17 17 18 18 18 18 18 18 18 18 18 18 18 18 18 18 18 18 18 18 18 17 17 17 17 17 17 17 17 17 17 17 17 17 18 18 18 18 17 18 18 18 18 18 18 18 18 18 18 18 18 18 19 19 19 19 19 19 20 20 20 20
26 26 25 24 22 20 19 18 17 17 17 17 17 16 16 16 16 16 16 16 17 17 17 17 17 18 18 18 18 18 18 18 19 19 19 19 19 19 18 18 18 18 18 18 17 17 17 17 17 17 17 17 17 17 17 17 18 18 18 18 18 18 18 18 18 18 18 18 18 18 18 18 18 18 18 18 19 19 19 19 19 19 20 20 20 20
24 23 23 21 20 19 18 17 17 17 17 17 17 16 16 16 16 16 17 17 17 18 18 18 18 18 18 19 19 19 19 19 19 19 19 19 19 19 18 18 18 18 18 18 18 17 17 17 17 17 17 18 18 18 18 18 18 18 18 18 18 18 18 19 19 18 18 18 18 18 18 18 18 18 18 18 19 19 19 19 19 19 19 19 20 20
22 21 20 19 18 17 17 17 17 17 17 17 17 17 17 17 17 17 17 18 18 18 18 19 19 19 19 19 19 20 19 19 19 19 19 19 19 19 19 19 19 19 18 18 18 18 18 18 18 18 18 18 18 18 18 18 18 19 19 19 19 19 19 19 19 19 19 19 19 18 18 18 18 18 18 18 19 19 19 19 19 19 19 19 19 19
20 19 18 18 17 17 16 16 16 16 16 17 17 17 17 17 18 18 18 18 19 19 19 19 19 20 20 20 20 20 20 20 20 20 20 19 19 19 19 19 19 19 19 19 18 18 18 18 18 18 18 19 19 19 19 19 19 19 19 19 19 19 19 19 19 19 19 19 19 19 19 19 19 19 19 19 19 19 19 19 19 19 19 19 19 19
18 18 17 17 16 16 16 16 16 16 17 17 17 18 18 18 18 19 19 19 19 19 20 19 20 20 20 20 20 20 20 20 20 20 20 20 19 19 19 19 19 19 19 19 19 19 19 19 19 19 19 19 19 19 19 19 19 19 19 19 19 19 19 19 19 19 19 19 19 19 19 19 19 19 19 19 19 19 19 19 19 19 19 19 19 19
17 17 16 16 16 16 16 16 17 17 17 18 18 18 19 19 19 19 19 19 19 20 20 20 20 20 21 21 21 21 20 20 20 20 20 20 20 19 19 19 20 20 20 19 19 19 19 19 19 19 20 20 20 20 20 20 20 20 20 20 20 20 20 20 20 20 20 20 20 20 20 19 19 19 19 19 19 19 19 19 19 19 19 19 19 19
16 16 16 16 16 16 16 17 17 18 18 18 19 19 19 19 19 19 19 19 20 20 20 20 20 21 21 21 21 21 21 21 21 21 20 20 20 20 19 19 20 20 20 20 20 20 20 20 20 20 20 20 20 20 20 20 20 20 20 20 20 20 20 20 20 20 20 20 20 20 20 20 20 20 20 20 20 20 19 19 19 19 19 19 20 20
16 16 16 16 16 16 17 18 18 18 19 19 19 19 19 19 19 20 20 20 20 20 21 21 21 21 21 21 21 21 21 21 21 21 21 21 20 20 20 20 20 20 21 20 20 21 21 21 21 21 21 21 21 21 21 21 21 21 21 20 20 20 20 20 20 20 20 20 20 20 20 20 20 20 20 20 20 20 20 20 20 20 20 20 20 20
16 16 16 16 16 17 18 18 19 19 19 19 19 19 19 19 20 20 20 20 20 21 21 21 21 21 21 21 22 22 21 21 21 21 21 21 21 20 21 21 21 21 21 21 21 21 22 22 21 21 21 21 21 21 21 21 21 21 21 21 21 21 20 20 20 20 20 20 20 20 20 20 20 20 20 20 21 21 21 21 21 21 21 21 21 21
15 16 16 17 17 18 18 18 19 19 18 18 18 18 19 19 19 20 20 20 20 21 21 21 21 21 21 21 22 22 22 21 21 21 22 22 21 21 21 21 22 22 22 22 22 22 22 22 22 22 22 22 22 22 22 22 22 21 21 21 21 21 21 21 20 20 20 20 20 20 20 20 20 21 21 21 21 21 21 21 21 21 21 21 21 21
16 16 17 17 17 18 18 18 18 18 18 18 18 18 19 19 19 20 20 20 20 20 21 21 21 22 22 21 21 21 22 22 22 22 22 22 22 22 22 22 22 22 22 22 23 23 22 22 22 22 22 22 22 22 22 22 22 22 22 21 21 21 21 21 21 21 21 21 21 21 21 21 21 21 21 21 21 21 21 22 22 22 22 22 22 22
16 17 17 18 17 17 18 18 18 18 17 18 18 18 19 19 19 19 19 20 20 20 21 21 21 21 21 21 21 21 21 22 22 22 23 23 23 23 23 23 23 23 23 23 23 23 23 23 23 23 23 23 23 22 22 22 22 22 22 22 22 21 21 21 21 21 21 21 21 21 21 21 21 21 21 21 22 22 22 22 22 22 22 22 22 22
17 17 17 17 17 17 17 17 17 17 17 17 18 18 18 18 18 19 19 19 19 20 20 20 21 21 21 21 21 21 21 22 22 22 23 23 23 23 23 23 23 23 23 23 23 23 23 23 23 23 23 23 23 23 23 23 22 22 22 22 22 22 22 22 21 21 21 21 21 21 21 21 22 22 22 22 22 22 22 22 22 22 22 22 22 22
17 17 17 17 17 17 17 17 17 17 17 17 17 17 18 18 18 18 18 18 19 19 20 20 21 21 21 21 21 21 21 21 22 22 22 23 23 23 24 24 23 23 23 23 23 23 24 24 24 24 24 23 23 23 23 23 23 23 23 22 22 22 22 22 22 22 22 22 21 22 22 22 22 22 22 22 22 22 23 23 23 23 23 23 23 23
17 17 17 17 17 16 16 16 16 17 17 17 17 17 17 17 17 18 18 18 19 19 19 20 20 20 20 20 20 20 20 21 21 21 22 22 23 23 24 23 23 23 24 24 24 24 24 24 24 24 24 24 24 23 23 23 23 23 23 23 23 23 22 22 22 22 22 22 22 22 22 22 22 22 22 23 23 23 23 23 23 23 23 23 23 23
17 16 16 16 16 16 16 16 16 16 16 16 17 17 17 17 17 17 18 18 18 19 19 19 19 19 20 20 19 19 20 20 21 21 21 22 22 23 23 23 23 23 24 24 24 24 24 24 24 25 24 24 24 24 24 23 23 23 23 23 23 23 23 23 23 23 23 22 22 22 22 22 22 23 23 23 23 23 23 23 23 23 23 23 23 23
16 16 16 16 16 16 16 16 16 16 16 16 16 17 17 17 17 17 17 18 18 18 18 18 19 19 19 19 19 19 20 20 20 21 21 21 22 22 23 23 23 23 24 24 24 24 24 24 25 25 25 25 24 24 24 24 24 24 24 24 24 23 23 23 23 23 23 23 23 23 23 23 23 23 23 23 23 23 24 24 24 24 24 24 24 24
16 16 16 16 16 16 16 16 16 16 16 16 17 17 17 17 17 17 18 18 18 18 18 18 19 19 19 19 19 19 19 19 20 20 21 21 21 22 23 23 23 23 23 24 24 24 24 24 25 25 25 25 25 25 24 24 24 24 24 24 24 24 24 24 24 24 24 24 24 24 23 23 23 23 23 23 24 24 24 24 24 24 24 24 24 24
15 15 15 16 16 16 16 16 16 16 16 17 17 17 18 18 17 17 18 18 19 18 18 19 19 19 20 20 20 20 19 19 19 20 20 20 21 21 22 23 23 23 23 24 24 24 24 25 25 25 25 25 25 25 25 24 24 24 24 24 24 24 24 24 24 24 24 24 24 24 24 24 24 24 24 24 24 24 24 24 24 24 24 24 24 25
15 15 15 16 16 16 16 16 16 16 17 17 17 18 18 18 18 18 18 19 19 19 19 19 19 20 20 20 21 20 20 19 20 20 20 20 20 21 22 22 23 23 23 24 24 24 25 25 25 26 26 26 26 25 25 25 24 24 24 24 24 24 24 24 25 25 25 25 25 25 25 25 25 25 25 25 25 25 25 24 24 24 24 24 24 25
15 15 15 16 16 16 16 16 17 17 17 17 18 18 18 18 18 19 19 19 19 19 19 19 20 20 20 21 21 21 21 20 20 20 20 20 20 21 22 22 23 23 24 24 24 24 25 25 26 26 26 26 26 26 25 25 25 24 24 24 24 24 24 25 25 25 25 25 25 25 25 25 26 25 25 25 25 25 25 25 25 24 24 24 24 25
15 16 16 16 17 17 17 17 17 18 18 18 18 18 19 19 19 19 19 20 20 20 20 20 20 20 21 21 21 21 21 21 21 21 21 21 21 21 22 23 23 24 24 24 24 24 25 26 27 27 27 27 27 26 26 25 25 25 25 25 24 24 25 25 25 25 25 25 26 26 26 26 26 26 26 26 26 26 25 25 25 25 25 24 24 25
16 16 17 17 17 18 18 18 18 18 19 19 19 19 19 19 20 20 20 20 20 20 20 20 20 21 21 21 22 22 22 22 22 22 22 22 22 22 23 23 24 24 24 25 24 24 25 26 27 28 28 28 27 27 26 26 25 25 25 25 24 25 25 25 25 25 25 26 26 26 26 26 26 26 26 26 26 26 26 26 25 25 25 25 24 25
17 17 17 18 18 18 19 19 19 19 19 19 19 20 20 20 20 20 20 20 20 20 20 20 21 21 21 22 22 23 23 23 23 23 23 23 23 23 24 24 24 25 25 25 25 25 25 25 26 27 28 28 28 28 27 26 25 25 25 25 24 24 25 25 25 25 25 26 26 26 26 26 26 27 26 26 26 26 26 26 26 25 25 25 25 25
17 18 18 18 19 19 19 19 20 20 20 20 20 20 20 20 20 20 21 21 21 21 21 21 21 21 22 22 23 24 24 23 23 23 23 23 23 24 24 25 25 25 26 26 26 26 25 26 26 27 28 28 29 28 27 26 26 25 25 25 25 25 25 25 25 25 26 26 26 26 26 26 27 27 27 26 26 26 26 26 26 26 26 25 25 25
18 18 19 19 19 20 20 20 20 20 21 21 21 21 21 21 21 21 21 21 21 22 22 22 22 22 23 23 23 24 24 24 24 24 24 24 24 24 25 25 26 26 26 26 26 26 26 26 26 26 27 28 29 29 28 27 26 26 25 25 25 25 25 25 25 25 26 26 26 26 26 26 26 27 27 27 27 26 26 26 26 26 26 26 26 26
18 19 19 20 20 20 20 21 21 21 21 21 21 21 21 21 21 22 22 22 22 22 23 23 23 23 23 23 24 24 24 24 24 24 24 25 25 25 25 26 26 27 27 27 26 26 26 25 26 26 26 27 28 29 29 28 27 26 25 25 25 25 25 25 25 25 25 26 26 26 26 26 26 27 27 27 27 27 27 26 26 26 26 26 26 26
19 19 20 20 20 21 21 21 21 21 21 21 21 22 22 22 22 22 23 23 23 23 24 24 24 24 24 24 24 24 24 24 24 25 25 25 26 26 26 26 27 27 27 27 27 26 26 25 25 26 26 27 27 28 29 28 27 26 26 26 25 25 25 25 25 25 26 26 26 26 26 26 26 26 27 27 27 27 27 27 27 27 27 27 27 27
20 20 20 21 21 21 21 21 22 22 22 22 22 22 22 23 23 23 24 24 24 24 24 24 24 24 24 24 24 24 24 24 25 25 25 26 26 26 26 27 27 28 28 27 26 26 25 25 25 25 25 26 27 27 28 28 28 27 27 26 26 25 25 25 26 26 26 26 26 26 26 26 26 26 26 26 26 26 26 27 27 27 27 27 27 27
21 21 21 21 21 21 22 22 22 22 22 22 23 23 23 24 24 24 24 25 25 25 25 25 25 25 25 25 25 25 25 25 25 26 26 26 27 27 27 27 27 28 28 27 26 26 25 25 25 25 25 25 26 26 27 28 28 28 27 27 27 26 26 26 26 26 26 26 26 26 26 27 26 26 26 26 26 26 26 27 27 27 27 27 28 28
21 21 21 21 21 22 22 22 22 23 23 23 24 24 24 24 25 25 25 25 25 25 25 25 25 25 25 25 25 26 26 26 26 26 27 27 27 27 27 27 27 27 27 27 26 26 25 25 24 24 24 24 25 25 26 27 28 28 28 28 27 27 27 26 26 26 26 26 27 27 27 27 27 26 26 26 26 26 26 27 27 27 28 28 28 28
21 21 21 21 22 22 22 22 23 23 24 24 24 24 25 25 25 25 25 25 25 25 26 26 26 26 26 26 26 27 27 27 27 27 28 28 28 28 28 27 27 27 26 26 26 25 25 24 24 24 24 24 24 24 25 27 28 29 29 28 28 28 28 27 27 27 27 27 27 27 27 27 27 27 27 27 27 27 27 27 27 27 28 28 28 28
21 21 21 21 22 22 22 23 23 24 24 24 24 25 25 25 25 25 25 26 26 26 26 26 26 27 27 27 28 28 28 28 28 29 29 29 28 28 28 27 27 26 26 25 25 25 25 24 24 24 24 23 23 23 24 26 28 29 29 29 29 29 29 28 28 28 27 27 28 27 27 27 27 27 27 27 27 27 27 27 27 27 28 28 28 28
21 21 22 22 22 22 23 23 23 24 24 24 25 25 25 25 25 25 25 26 26 27 27 27 27 28 28 28 29 29 29 29 30 30 30 30 29 29 28 27 27 26 25 25 24 24 24 24 24 24 24 23 23 23 23 25 27 29 29 29 29 29 29 29 29 29 28 28 28 28 27 27 27 27 27 27 27 27 27 27 27 27 28 28 28 28
21 21 21 22 22 22 22 23 23 24 24 24 25 25 25 25 25 25 25 26 27 27 27 28 28 28 29 29 29 30 30 30 31 31 31 30 30 29 28 27 26 26 25 24 24 24 24 24 24 24 24 24 23 23 24 25 27 28 29 29 29 29 29 29 30 30 30 29 29 28 28 28 27 27 28 28 28 28 28 28 27 28 28 28 28 28
21 21 21 21 21 22 22 23 23 24 24 24 25 25 24 24 25 25 26 26 27 27 28 28 28 29 29 29 30 31 31 32 32 32 31 31 30 29 28 27 26 25 25 24 24 24 24 24 24 24 24 24 24 23 24 25 26 28 29 29 29 29 28 29 30 30 30 30 30 29 28 28 28 28 28 28 28 28 28 28 28 28 28 28 28 28
20 20 21 21 21 22 22 23 23 23 24 24 24 24 24 25 25 25 26 27 27 28 28 29 29 29 29 30 30 31 32 32 33 33 32 31 30 29 28 27 26 25 24 24 24 24 24 24 24 24 24 24 24 24 25 25 26 27 28 29 29 28 28 29 30 30 30 30 30 30 29 28 28 28 28 28 28 28 28 28 28 28 28 29 29 29
20 20 21 21 21 22 22 22 23 23 23 23 24 24 25 25 26 26 27 27 28 28 28 29 29 29 29 30 31 31 32 33 33 33 33 32 31 29 28 27 26 25 24 24 24 24 24 24 24 25 25 24 24 25 25 26 27 27 28 28 28 28 28 29 30 30 30 30 30 30 29 29 29 28 28 28 28 28 28 28 29 29 29 29 29 29
20 20 21 21 21 21 22 22 22 23 23 24 24 25 26 26 27 27 27 28 28 29 29 29 29 29 30 30 31 31 32 32 33 33 33 32 31 29 28 27 26 25 25 24 24 24 24 24 25 25 25 25 25 25 26 27 27 28 28 28 28 28 28 29 30 30 30 30 30 30 29 29 29 29 28 28 28 28 28 28 29 29 30 30 30 30
21 21 21 21 21 22 22 23 23 23 24 25 26 26 27 27 28 28 29 29 29 30 30 30 30 30 30 31 31 32 32 32 32 33 32 32 31 29 28 26 26 25 25 25 25 25 25 25 25 25 25 25 25 26 26 27 28 28 28 28 28 28 28 29 30 31 30 30 30 29 29 29 29 29 29 28 28 27 27 28 28 29 30 30 30 30
21 21 22 22 22 23 23 24 24 25 26 27 27 28 29 29 29 30 30 30 30 31 31 31 31 31 31 31 31 32 32 32 32 32 32 31 30 29 27 26 26 25 25 25 25 25 25 25 25 25 26 26 26 26 27 27 28 28 28 28 28 28 29 29 30 30 30 30 30 30 29 29 30 30 29 29 28 27 27 27 27 28 29 30 30 30
22 22 23 23 24 24 25 25 26 26 27 28 29 29 30 30 30 31 31 31 31 31 32 32 32 31 31 31 32 32 32 31 31 31 31 30 29 28 27 26 26 26 26 26 26 26 26 25 25 25 26 27 27 27 27 27 27 27 28 28 29 29 29 29 29 30 30 30 30 30 30 30 30 30 30 29 29 28 27 26 26 27 28 29 30 30
Wind_Direction
274 277 279 279 279 280 280 281 283 286 287 286 284 281 278 276 275 276 277 278 279 279 279 278 278 278 278 278 278 279 280 282 284 286 288 289 290 291 291 291 291 291 291 291 290 290 290 290 289 289 289 289 289 289 289 290 290 290 290 290 291 291 291 291 291 291 290 290 289 288 287 286 285 283 280 278 277 276 276 276 276 276 275 275 275 275
274 276 277 277 278 278 279 281 283 285 285 283 280 278 275 275 275 276 277 278 278 278 278 277 277 277 277 277 278 278 280 282 283 285 287 288 288 289 289 290 290 290 289 289 289 289 288 288 288 288 289 289 289 289 289 289 289 290 290 290 291 291 291 291 291 290 290 289 288 287 286 285 284 282 280 278 276 275 275 274 274 274 273 272 272 273
274 275 276 276 276 277 279 282 283 283 281 278 275 273 273 273 275 276 277 277 277 277 277 277 277 277 277 277 277 278 280 282 283 285 286 286 287 287 288 288 288 288 288 288 288 288 288 288 288 288 288 288 288 288 289 289 289 289 289 289 289 290 290 290 290 290 289 289 288 287 285 284 283 282 280 278 277 275 274 273 273 272 272 271 271 271
272 273 274 274 275 277 280 281 281 279 275 273 271 270 271 272 274 274 275 275 276 276 276 277 277 277 277 277 278 279 281 282 284 284 285 285 286 286 286 286 286 286 287 287 287 287 287 287 287 287 288 288 288 288 288 288 288 288 288 288 288 288 289 289 289 289 289 288 287 286 285 284 282 281 280 279 278 276 275 274 273 272 271 271 271 271
271 271 271 272 275 278 279 280 278 274 270 268 268 269 270 272 273 273 273 274 275 276 276 277 277 277 277 277 278 279 280 281 282 283 283 283 283 284 284 284 285 285 285 285 285 285 285 286 286 287 287 287 287 288 288 288 288 288 288 288 288 289 289 289 289 288 288 287 286 285 284 283 282 281 281 280 279 277 276 275 274 273 272 271 270 270
268 269 270 273 275 278 278 277 274 270 267 266 267 268 270 271 271 272 272 273 275 276 277 277 278 278 277 278 278 279 280 281 281 281 281 282 282 282 282 283 283 283 283 283 283 284 284 284 285 286 286 286 287 287 287 288 288 288 288 288 289 289 289 289 289 288 288 287 286 285 283 283 282 281 281 280 279 278 277 276 275 274 273 271 270 270
266 268 271 274 275 276 275 273 269 266 265 265 267 268 270 270 271 271 272 273 275 276 277 278 279 279 279 279 280 281 281 281 282 282 282 282 282 282 282 282 282 282 282 282 282 283 283 283 284 285 285 286 286 286 287 287 288 288 288 289 289 290 290 289 289 288 287 286 285 284 284 283 282 281 281 280 279 279 278 277 276 275 274 273 271 270
265 268 271 273 274 274 271 268 265 264 264 266 267 268 269 270 271 272 273 274 275 276 278 278 279 280 280 281 282 282 283 283 283 283 283 283 283 283 283 282 282 282 282 282 282 282 283 283 284 284 284 285 285 286 287 287 287 288 288 289 289 290 289 289 288 287 287 286 285 285 284 283 282 282 281 280 280 279 279 278 277 276 275 274 273 272
265 268 270 271 271 270 267 264 263 264 265 267 268 268 269 270 272 273 274 276 277 277 277 278 279 279 280 281 282 282 283 283 283 283 283 283 283 283 283 283 282 282 282 282 282 282 283 283 283 284 284 284 285 286 287 287 287 288 289 289 289 289 289 289 288 288 287 286 286 285 285 284 283 282 282 281 280 280 279 279 278 278 277 276 275 274
265 267 268 268 267 265 263 262 263 265 266 268 268 269 270 272 274 275 277 278 278 278 278 278 278 279 279 280 281 282 282 283 283 283 283 283 283 283 284 283 283 283 283 282 282 283 283 283 283 283 284 285 285 286 287 288 288 289 289 290 290 290 289 289 288 288 288 287 287 286 286 285 284 283 283 282 281 280 280 279 279 278 278 278 277 276
264 265 265 264 263 261 260 262 264 266 267 269 269 270 272 274 276 277 278 279 279 279 279 280 279 279 280 280 281 282 282 283 283 283 283 283 284 284 284 284 284 284 284 283 283 283 283 283 284 284 284 285 286 287 288 288 289 289 290 290 290 290 290 289 289 289 288 288 287 287 286 286 285 284 284 283 282 282 281 280 279 279 278 278 278 277
263 262 261 260 259 258 259 262 264 266 268 270 271 273 275 276 277 278 279 279 280 280 280 280 280 280 280 281 281 282 282 283 283 283 283 284 284 284 285 285 284 284 284 284 284 284 284 284 284 285 285 286 287 288 288 289 289 289 289 290 289 289 289 289 289 289 288 288 288 287 287 287 286 286 285 284 284 283 282 282 281 280 279 279 278 278
259 258 256 256 256 258 260 262 264 266 268 270 272 274 275 277 278 279 279 280 280 280 280 280 281 281 281 281 281 282 282 282 282 282 283 283 284 284 284 284 284 284 284 284 284 284 284 284 285 285 286 287 287 288 288 288 289 289 289 289 289 288 288 288 288 288 288 288 288 287 287 287 287 286 286 285 285 285 284 283 283 282 281 280 280 279
255 254 253 254 256 259 261 263 265 267 268 270 272 273 275 277 278 279 279 279 279 279 280 280 280 281 281 281 281 281 281 282 282 282 282 282 283 283 283 283 283 283 283 283 284 284 284 284 285 285 286 287 287 288 288 288 288 288 288 288 288 287 287 287 287 287 287 287 288 288 288 287 287 287 286 286 286 286 285 285 284 284 284 283 282 281
252 251 253 255 257 259 262 264 265 267 268 270 272 274 276 277 278 278 278 278 279 279 279 280 280 281 281 281 281 281 281 281 281 281 282 282 282 283 283 283 282 282 283 283 283 283 284 284 285 285 286 287 287 287 287 287 287 287 287 287 287 287 287 287 287 287 287 288 288 288 288 288 287 287 287 287 287 286 286 286 285 285 285 285 284 284
249 250 252 255 257 260 262 264 266 267 269 271 273 275 277 278 278 278 279 279 279 279 280 280 280 280 281 281 281 281 281 281 281 282 282 282 282 282 282 282 282 282 282 283 283 283 284 284 285 285 286 286 287 287 287 287 287 287 287 286 286 286 286 286 287 287 287 287 288 288 288 288 288 288 288 288 287 287 287 286 286 286 286 286 285 285
249 251 253 256 258 260 263 265 267 269 271 273 275 277 278 279 279 280 280 280 280 281 281 281 280 280 281 281 282 282 281 282 282 282 282 282 282 282 282 281 281 281 282 282 283 283 284 285 285 286 286 286 286 287 287 287 286 286 286 286 286 286 286 286 286 287 287 287 287 288 288 288 288 288 288 288 288 288 287 287 287 286 286 286 285 285
250 252 255 257 260 262 264 267 269 271 273 275 277 278 279 279 280 280 281 281 281 282 282 282 282 281 280 281 282 282 282 282 282 282 282 282 282 282 282 281 281 281 281 282 283 283 284 284 285 285 286 286 286 286 286 286 286 286 286 286 286 286 286 286 287 287 287 287 287 287 288 288 288 288 288 288 288 288 288 288 287 287 286 286 285 285
252 255 258 260 262 264 266 268 270 272 275 276 277 278 278 279 279 280 280 281 281 282 282 282 281 281 280 280 281 282 283 283 283 283 282 282 282 282 281 281 281 281 281 282 282 283 283 284 284 285 285 286 286 286 286 286 286 286 286 286 286 286 286 287 287 287 287 287 287 288 288 288 288 289 289 289 289 289 288 288 288 287 287 286 286 285
256 259 261 263 264 266 268 270 271 273 275 276 277 277 277 278 278 279 279 280 280 281 281 281 281 281 281 281 281 282 283 283 283 283 283 283 282 282 281 281 281 281 281 282 282 282 283 283 284 284 285 285 285 285 286 286 286 286 286 286 286 286 286 286 287 287 287 287 288 288 288 289 289 289 289 289 289 289 289 288 288 288 287 287 286 285
260 262 263 265 266 268 269 271 272 273 274 275 276 276 276 277 278 278 279 280 280 280 281 281 281 281 282 282 282 282 283 283 284 283 283 283 282 282 281 281 281 281 281 281 282 282 283 283 283 284 284 285 285 285 285 285 285 285 285 285 285 286 286 286 286 287 287 287 288 288 289 289 289 290 290 290 290 290 289 289 289 288 288 287 287 286
262 263 265 266 267 268 270 271 273 273 274 274 275 275 276 277 278 279 280 281 281 282 282 282 283 283 283 284 284 284 284 284 284 284 283 283 283 282 282 282 282 281 281 281 282 282 282 283 283 283 283 284 284 284 284 284 284 284 285 285 285 285 285 285 286 286 287 287 287 288 289 289 289 290 290 290 290 290 290 290 290 289 288 288 287 286
263 265 266 267 268 269 270 271 272 273 274 274 275 276 276 277 278 280 281 282 283 283 284 284 284 285 285 285 285 285 285 285 284 284 284 284 283 282 282 282 282 282 282 282 282 282 282 282 283 283 283 283 283 283 284 284 284 284 284 284 284 284 284 285 285 285 286 286 287 288 289 289 290 290 290 291 291 291 291 291 290 290 289 289 288 287
264 265 266 268 269 269 270 271 272 273 274 275 276 276 277 279 280 281 283 284 284 284 285 285 286 286 287 287 287 287 286 286 285 285 284 284 283 283 283 283 283 283 282 282 282 282 282 282 282 282 282 282 282 283 283 283 283 283 283 283 283 283 284 284 284 285 285 286 287 287 288 289 290 290 291 291 291 291 291 291 291 290 290 289 289 288
264 265 266 268 269 270 271 271 272 273 274 275 276 277 279 280 282 283 284 285 285 285 286 286 287 287 287 287 288 287 287 286 286 286 285 284 284 284 283 283 283 283 283 282 282 282 282 282 282 282 282 282 282 282 282 282 282 283 283 283 283 283 283 284 284 284 285 286 286 287 288 289 289 290 290 291 291 291 291 291 291 291 290 290 289 288
264 265 267 268 269 270 270 271 272 273 274 275 277 278 280 282 283 284 285 285 285 285 286 287 287 287 287 287 287 287 287 287 287 286 286 285 285 284 284 284 283 283 282 282 282 282 281 281 281 281 281 281 282 282 282 282 282 282 283 283 283 283 283 283 284 284 285 286 286 287 288 288 289 289 290 290 291 291 291 291 291 291 290 290 289 288
264 265 266 267 268 269 270 270 272 273 275 276 278 280 281 283 284 285 285 285 285 286 287 287 287 287 287 287 287 287 287 287 287 286 285 285 285 284 284 284 283 282 282 281 281 281 281 280 280 280 281 281 281 281 282 282 282 282 282 282 283 283 283 284 284 285 285 286 286 287 288 288 288 289 289 289 290 290 290 290 290 290 290 289 289 288
264 265 266 266 267 268 269 270 272 274 276 278 280 282 283 284 285 285 285 286 286 288 288 289 289 289 289 289 288 288 287 287 286 286 285 285 285 285 284 284 283 282 282 282 281 281 281 280 280 280 280 280 281 281 281 281 281 282 282 282 282 283 283 284 284 285 286 286 287 287 288 288 288 288 288 288 288 288 288 288 288 288 288 288 288 288
264 264 265 265 266 268 269 271 273 275 277 279 281 283 284 285 285 285 285 286 288 289 289 290 290 290 291 290 290 289 289 288 287 287 287 287 287 286 285 284 284 284 283 282 282 282 281 281 280 280 280 280 280 280 280 280 281 281 281 281 282 282 283 283 284 285 285 286 287 287 288 288 288 288 288 288 288 287 287 287 287 287 287 287 287 287
264 264 265 266 267 268 270 272 274 276 278 280 281 283 284 285 285 286 286 287 288 289 290 290 290 291 290 290 290 290 290 289 289 289 289 289 289 287 286 286 285 285 284 283 283 282 282 281 281 281 280 280 279 279 279 280 280 280 280 280 280 281 282 282 283 284 285 286 286 287 287 287 288 287 287 287 287 287 287 287 286 286 286 286 286 286
264 265 266 267 269 270 272 273 275 277 278 279 281 282 283 285 285 286 287 287 288 289 289 290 290 290 290 291 291 291 291 290 291 291 291 291 290 289 288 287 287 286 285 284 283 282 282 282 282 281 281 280 280 279 279 279 279 278 279 279 279 280 281 281 282 283 284 285 286 286 287 287 287 287 287 287 287 286 286 286 286 286 286 285 285 285
265 266 267 269 270 272 273 275 276 278 279 280 281 282 283 284 285 286 287 287 288 289 289 290 290 290 290 291 291 290 290 291 291 292 292 292 291 290 289 288 287 286 285 285 283 282 281 281 281 281 281 281 280 279 279 279 278 278 278 278 278 279 280 280 281 282 283 284 285 285 286 286 286 286 286 286 286 286 286 286 286 286 286 285 285 285
265 266 268 270 272 274 275 277 278 279 280 281 282 282 283 284 285 286 287 287 288 289 289 290 290 290 291 291 291 290 290 291 292 292 292 292 291 290 289 288 287 287 286 285 284 283 281 280 280 280 280 280 280 279 279 278 278 277 277 277 278 278 279 280 281 282 283 283 284 284 285 285 285 285 286 286 286 286 286 286 286 286 286 286 285 285
267 269 271 272 274 276 277 279 280 281 282 282 283 283 284 285 286 286 287 288 289 290 290 291 291 291 291 291 291 291 291 291 292 292 291 291 291 290 289 289 288 287 286 285 284 282 281 280 279 279 279 279 279 279 278 278 277 277 277 277 277 277 278 279 280 281 282 283 283 284 284 285 285 285 286 286 286 286 286 286 286 286 286 286 285 285
271 272 274 275 277 278 279 281 281 282 283 284 285 285 286 287 288 289 289 290 290 291 291 292 291 292 292 292 292 292 292 292 292 292 292 292 291 291 290 290 288 287 286 285 283 282 280 279 278 277 277 278 278 278 278 277 276 276 276 276 276 277 277 278 280 281 282 282 283 284 284 284 285 285 286 286 286 286 286 286 286 286 286 286 286 285
273 274 276 277 278 279 280 281 282 283 284 285 287 288 289 290 290 291 291 291 292 292 292 292 292 292 292 292 292 292 292 292 293 293 293 293 293 292 291 290 289 288 286 285 283 281 280 278 277 276 276 276 277 278 278 277 276 276 275 276 276 277 278 279 280 281 282 282 283 284 284 284 285 285 286 286 286 286 286 286 286 286 286 286 286 285
274 275 276 277 278 279 281 282 283 284 286 287 288 289 290 291 292 292 292 292 292 292 292 292 292 292 292 292 292 292 292 293 293 294 294 294 294 293 292 290 289 288 286 284 282 281 279 277 276 275 275 275 275 277 278 278 278 277 276 276 276 277 278 279 280 281 282 283 283 284 284 285 285 285 286 286 286 286 286 286 286 286 286 286 286 286
275 276 277 278 279 280 281 283 284 285 287 288 289 290 291 292 293 293 293 292 292 292 292 292 292 292 292 293 293 293 293 293 294 294 295 295 294 293 292 290 289 287 285 284 282 280 278 276 275 274 274 274 275 276 277 278 278 278 277 277 277 278 279 280 281 282 283 283 284 284 285 285 285 285 285 285 286 286 286 286 286 286 286 286 286 286
276 277 278 279 280 282 283 284 285 287 288 289 290 291 292 293 293 293 293 293 292 292 292 292 293 293 293 293 292 293 293 293 294 295 295 295 295 293 292 290 288 286 285 283 281 279 277 275 274 273 273 273 274 275 276 277 278 278 278 278 279 279 280 281 282 283 283 284 284 285 285 285 285 285 285 285 285 285 285 286 286 287 287 287 287 287
277 278 279 280 281 282 284 285 287 288 289 290 291 292 292 293 293 293 293 292 292 292 292 293 293 293 293 293 292 292 293 294 294 295 296 295 295 293 292 289 287 285 283 282 280 278 277 275 273 272 272 272 272 273 275 276 277 278 278 279 279 280 280 281 282 283 284 284 284 285 285 285 285 285 285 285 285 285 285 286 286 286 287 287 287 288
277 278 280 281 282 283 285 286 287 289 290 291 292 292 293 293 293 293 293 292 292 292 293 293 293 293 293 292 292 292 293 293 294 295 296 296 295 293 291 289 287 284 282 281 279 278 276 274 273 272 271 271 271 272 273 275 276 277 278 279 279 280 281 281 282 283 283 284 284 285 285 285 285 285 285 285 285 285 285 286 286 287 287 287 287 287
279 280 281 282 283 284 286 287 288 289 290 291 292 292 293 293 293 293 293 293 292 292 293 293 293 293 293 292 292 292 293 294 295 296 296 296 295 294 292 289 286 284 281 280 278 276 275 273 272 271 271 270 270 270 271 273 274 276 277 278 279 281 282 282 283 283 284 284 285 285 285 285 285 285 285 285 285 285 286 286 286 287 287 288 288 287
280 281 282 283 284 286 287 288 289 290 291 292 292 292 292 292 292 292 292 292 292 292 293 293 293 293 293 292 292 292 293 294 295 296 296 296 296 294 292 289 286 283 281 279 277 275 274 273 272 271 271 270 270 269 270 271 272 274 276 277 279 280 282 283 284 285 285 285 285 285 285 285 285 285 285 285 285 285 286 287 287 287 288 288 288 288
281 282 283 284 286 287 288 289 290 291 291 291 291 291 292 292 292 292 292 292 293 293 293 293 293 293 293 292 292 292 293 294 295 295 296 296 296 294 292 289 286 284 281 279 277 275 274 273 272 272 271 271 270 269 269 269 271 272 275 276 278 280 282 284 285 286 286 286 286 286 286 286 285 285 285 286 286 286 287 287 288 288 288 288 288 288
281 282 284 285 286 287 288 289 290 290 290 291 291 291 291 292 292 292 292 292 293 293 293 294 294 294 293 293 292 292 293 293 294 295 295 295 295 294 292 289 286 284 281 279 277 275 273 273 272 272 272 271 271 270 269 269 270 272 274 276 278 280 282 284 285 285 286 286 286 286 286 286 286 286 286 286 287 287 288 288 289 289 289 289 288 288
281 282 283 284 285 286 288 288 289 290 290 290 291 291 291 292 292 292 292 292 293 293 293 294 294 294 293 293 292 292 292 293 294 294 295 295 294 293 291 289 286 284 281 279 277 276 274 273 272 272 272 272 271 271 270 270 270 271 274 276 278 280 282 283 284 285 285 286 286 286 286 286 286 286 286 286 287 288 289 289 289 290 290 289 289 289
280 281 282 284 285 286 287 288 289 290 291 291 291 291 291 292 292 292 292 293 293 293 293 293 293 293 292 292 292 292 292 292 293 293 294 294 293 292 290 288 286 284 282 280 279 277 276 274 273 273 272 272 272 271 271 271 271 272 274 276 279 281 282 283 283 284 285 285 286 286 286 286 286 286 286 286 287 288 289 290 291 291 291 291 290 290
281 282 283 285 286 287 289 290 291 291 292 292 292 292 293 293 293 293 293 293 293 293 293 293 293 292 292 292 291 291 291 292 292 292 292 292 291 290 289 287 285 284 283 281 280 278 277 276 275 274 273 273 272 272 272 272 273 274 275 277 279 281 282 282 283 283 284 284 285 285 285 285 285 285 285 286 287 289 290 291 292 292 292 292 291 291
283 284 285 287 288 290 291 292 293 293 294 294 295 295 295 295 295 294 294 294 293 293 293 293 293 292 292 292 292 292 291 291 291 291 290 290 290 289 287 286 284 283 282 281 280 279 278 276 276 275 274 274 273 272 272 272 273 275 276 278 279 280 281 282 282 283 284 284 284 284 284 284 284 284 284 285 287 288 289 291 291 292 292 292 292 291
284 286 288 289 290 291 292 293 294 295 296 297 297 297 297 297 297 296 296 296 295 295 295 295 294 294 293 293 293 292 291 291 290 289 288 288 288 287 286 285 284 283 282 281 280 279 278 277 276 276 276 275 274 273 273 273 274 276 277 278 279 279 280 281 282 282 283 283 283 283 283 283 283 284 284 285 286 287 288 289 290 290 290 291 291 291
284 286 287 288 289 290 291 292 294 295 296 297 298 298 298 298 298 298 298 297 297 297 297 297 297 296 295 294 293 292 291 290 289 288 286 286 286 285 284 284 283 283 282 281 281 280 279 278 277 277 278 277 276 276 275 275 276 277 277 278 279 279 280 280 281 282 282 283 283 283 283 283 283 284 285 285 286 287 287 288 288 288 288 288 288 289
Height
3088 3087 3087 3087 3086 3086 3085 3084 3084 3084 3083 3083 3083 3083 3083 3083 3083 3083 3083 3082 3082 3082 3082 3082 3082 3082 3081 3081 3081 3081 3081 3080 3080 3080 3080 3079 3079 3079 3079 3078 3078 3078 3078 3078 3078 3077 3077 3077 3076 3076 3076 3075 3075 3075 3074 3074 3074 3074 3073 3073 3073 3073 3072 3072 3072 3072 3071 3071 3071 3070 3070 3070 3069 3069 3069 3069 3068 3068 3068 3067 3067 3067 3067 3067 3066 3066
3086 3085 3085 3085 3084 3084 3083 3083 3083 3082 3082 3082 3082 3081 3081 3081 3081 3081 3081 3081 3081 3080 3080 3080 3080 3080 3080 3080 3080 3079 3079 3079 3079 3079 3078 3078 3078 3078 3077 3077 3077 3077 3076 3076 3076 3076 3075 3075 3075 3074 3074 3074 3073 3073 3073 3073 3072 3072 3072 3071 3071 3071 3071 3070 3070 3070 3070 3069 3069 3069 3068 3068 3068 3068 3068 3067 3067 3067 3066 3066 3066 3065 3065 3065 3065 3065
3083 3083 3083 3083 3082 3082 3081 3081 3081 3081 3080 3080 3080 3080 3080 3080 3080 3079 3079 3079 3079 3079 3079 3078 3078 3078 3078 3078 3078 3078 3078 3078 3078 3077 3077 3077 3077 3076 3076 3076 3075 3075 3075 3075 3074 3074 3074 3073 3073 3073 3073 3072 3072 3072 3071 3071 3071 3070 3070 3070 3069 3069 3069 3069 3068 3068 3068 3068 3068 3067 3067 3067 3067 3066 3066 3066 3065 3065 3065 3064 3064 3064 3064 3063 3063 3063
3081 3081 3081 3080 3080 3079 3079 3079 3079 3079 3079 3078 3078 3078 3078 3078 3078 3078 3078 3078 3077 3077 3077 3077 3077 3077 3077 3077 3077 3077 3077 3076 3076 3076 3076 3075 3075 3075 3075 3074 3074 3074 3073 3073 3073 3073 3072 3072 3072 3071 3071 3071 3070 3070 3070 3069 3069 3069 3068 3068 3068 3068 3068 3067 3067 3067 3066 3066 3066 3066 3065 3065 3065 3064 3064 3064 3064 3063 3063 3063 3063 3062 3062 3062 3062 3061
3079 3079 3078 3078 3078 3078 3078 3078 3077 3077 3077 3077 3077 3077 3077 3077 3077 3076 3076 3076 3076 3076 3076 3076 3076 3076 3076 3075 3075 3075 3075 3075 3075 3075 3074 3074 3074 3073 3073 3073 3073 3072 3072 3072 3071 3071 3071 3071 3070 3070 3069 3069 3069 3068 3068 3068 3068 3067 3067 3067 3066 3066 3066 3066 3065 3065 3065 3064 3064 3064 3064 3063 3063 3063 3063 3062 3062 3062 3062 3061 3061 3061 3060 3060 3060 3059
3077 3077 3076 3076 3076 3076 3076 3076 3075 3075 3075 3075 3075 3075 3075 3075 3075 3075 3075 3075 3074 3074 3074 3074 3074 3074 3074 3074 3074 3074 3073 3073 3073 3073 3073 3073 3073 3072 3072 3072 3071 3071 3071 3070 3070 3070 3069 3069 3069 3068 3068 3068 3068 3067 3067 3066 3066 3066 3065 3065 3065 3064 3064 3064 3064 3063 3063 3063 3063 3062 3062 3062 3062 3061 3061 3061 3060 3060 3060 3060 3059 3059 3059 3058 3058 3058
3075 3074 3074 3074 3074 3074 3074 3074 3074 3074 3074 3073 3073 3073 3073 3073 3073 3073 3073 3073 3073 3073 3073 3073 3072 3072 3072 3072 3072 3072 3072 3072 3072 3071 3071 3071 3071 3071 3070 3070 3070 3069 3069 3069 3068 3068 3068 3068 3067 3067 3067 3066 3066 3066 3065 3065 3065 3064 3064 3063 3063 3063 3063 3063 3062 3062 3062 3061 3061 3061 3060 3060 3060 3060 3059 3059 3059 3058 3058 3058 3058 3058 3057 3057 3057 3056
3072 3072 3072 3072 3072 3072 3072 3072 3072 3072 3072 3072 3072 3072 3072 3072 3072 3072 3072 3072 3072 3071 3071 3071 3071 3070 3070 3070 3070 3070 3070 3070 3070 3069 3069 3069 3069 3069 3068 3068 3068 3068 3067 3067 3067 3067 3066 3066 3066 3065 3065 3065 3064 3064 3064 3063 3063 3063 3063 3062 3062 3061 3061 3061 3060 3060 3060 3059 3059 3059 3059 3058 3058 3058 3058 3058 3057 3057 3057 3057 3056 3056 3056 3055 3055 3055
3070 3070 3070 3070 3070 3070 3070 3070 3070 3070 3070 3070 3070 3070 3070 3070 3070 3070 3070 3070 3070 3070 3070 3070 3069 3069 3068 3068 3068 3068 3068 3068 3068 3068 3068 3067 3067 3067 3067 3066 3066 3066 3066 3065 3065 3065 3065 3064 3064 3064 3063 3063 3063 3063 3062 3062 3062 3061 3061 3060 3060 3060 3059 3059 3059 3058 3058 3058 3058 3057 3057 3057 3057 3056 3056 3056 3056 3055 3055 3055 3055 3054 3054 3054 3053 3053
3068 3068 3068 3068 3068 3068 3068 3068 3068 3068 3068 3068 3068 3068 3068 3068 3068 3068 3068 3068 3068 3068 3068 3068 3068 3068 3067 3067 3067 3067 3067 3066 3066 3066 3066 3065 3065 3065 3065 3064 3064 3064 3064 3063 3063 3063 3063 3063 3063 3062 3062 3062 3061 3061 3061 3060 3060 3059 3059 3059 3058 3058 3058 3057 3057 3057 3056 3056 3056 3056 3055 3055 3055 3055 3054 3054 3054 3053 3053 3053 3053 3053 3052 3052 3052 3052
3066 3066 3066 3066 3066 3067 3067 3067 3067 3067 3067 3067 3067 3067 3067 3067 3066 3067 3067 3067 3067 3067 3066 3066 3066 3066 3066 3065 3065 3065 3065 3065 3064 3064 3064 3064 3063 3063 3063 3063 3062 3062 3062 3062 3062 3061 3061 3061 3061 3060 3060 3060 3059 3059 3059 3058 3058 3058 3057 3057 3057 3056 3056 3055 3055 3055 3055 3054 3054 3054 3053 3053 3053 3053 3053 3052 3052 3052 3052 3051 3051 3051 3051 3050 3050 3050
3064 3064 3064 3064 3064 3065 3065 3065 3065 3065 3065 3065 3065 3065 3065 3065 3065 3065 3065 3065 3065 3064 3064 3064 3064 3064 3064 3063 3063 3063 3063 3063 3063 3062 3062 3062 3062 3061 3061 3061 3060 3060 3060 3060 3060 3060 3059 3059 3059 3058 3058 3058 3058 3057 3057 3057 3056 3056 3056 3055 3055 3054 3054 3054 3053 3053 3053 3053 3052 3052 3052 3052 3051 3051 3051 3051 3050 3050 3050 3049 3049 3049 3049 3048 3048 3048
3063 3063 3063 3063 3063 3063 3063 3063 3063 3063 3063 3063 3063 3063 3063 3063 3063 3063 3063 3063 3063 3063 3063 3062 3062 3062 3062 3062 3062 3061 3061 3061 3061 3061 3060 3060 3060 3059 3059 3059 3058 3058 3058 3058 3058 3058 3058 3057 3057 3057 3056 3056 3056 3056 3055 3055 3055 3054 3054 3053 3053 3053 3052 3052 3052 3051 3051 3051 3050 3050 3050 3050 3049 3049 3049 3049 3048 3048 3048 3048 3048 3047 3047 3047 3046 3046
3061 3061 3061 3062 3062 3062 3062 3062 3062 3062 3062 3062 3062 3062 3062 3062 3062 3062 3062 3061 3061 3061 3061 3060 3060 3060 3060 3060 3060 3060 3059 3059 3059 3059 3058 3058 3058 3058 3057 3057 3057 3056 3056 3056 3056 3056 3056 3055 3055 3055 3054 3054 3054 3054 3053 3053 3053 3053 3052 3052 3051 3051 3051 3050 3050 3049 3049 3049 3048 3048 3048 3048 3048 3048 3047 3047 3047 3047 3046 3046 3046 3045 3045 3045 3045 3044
3059 3060 3060 3060 3060 3060 3060 3060 3060 3060 3060 3060 3060 3060 3060 3060 3060 3060 3060 3060 3059 3059 3059 3059 3058 3058 3058 3058 3058 3058 3058 3057 3057 3057 3057 3056 3056 3056 3055 3055 3055 3054 3054 3054 3054 3054 3054 3053 3053 3053 3053 3052 3052 3052 3052 3051 3051 3051 3050 3050 3050 3049 3049 3048 3048 3048 3047 3047 3047 3046 3046 3046 3046 3045 3045 3045 3045 3045 3044 3044 3044 3043 3043 3043 3043 3043
3058 3058 3058 3058 3059 3059 3059 3058 3058 3058 3058 3058 3058 3058 3058 3058 3058 3058 3058 3058 3058 3058 3057 3057 3057 3057 3056 3056 3056 3056 3056 3055 3055 3055 3054 3054 3054 3054 3054 3053 3053 3053 3053 3053 3052 3052 3052 3051 3051 3051 3051 3050 3050 3050 3050 3049 3049 3049 3048 3048 3048 3047 3047 3047 3046 3046 3045 3045 3045 3044 3044 3044 3044 3043 3043 3043 3043 3043 3042 3042 3042 3042 3041 3041 3041 3040
3057 3057 3057 3057 3058 3057 3057 3057 3057 3057 3057 3057 3057 3057 3057 3056 3056 3056 3056 3056 3056 3056 3055 3055 3055 3055 3055 3054 3054 3053 3053 3053 3053 3053 3052 3052 3052 3052 3052 3051 3051 3051 3051 3051 3050 3050 3050 3049 3049 3049 3049 3048 3048 3048 3048 3047 3047 3047 3046 3046 3046 3045 3045 3045 3044 3044 3044 3043 3043 3043 3042 3042 3042 3042 3041 3041 3041 3041 3040 3040 3040 3040 3039 3039 3039 3038
3055 3056 3056 3056 3056 3056 3056 3055 3055 3055 3055 3055 3055 3055 3055 3055 3054 3054 3054 3054 3054 3054 3053 3053 3053 3053 3053 3053 3052 3052 3051 3051 3051 3050 3050 3050 3050 3050 3050 3049 3049 3049 3049 3049 3048 3048 3048 3047 3047 3047 3047 3047 3046 3046 3046 3045 3045 3045 3044 3044 3043 3043 3043 3043 3042 3042 3042 3041 3041 3041 3040 3040 3040 3040 3039 3039 3039 3039 3038 3038 3038 3038 3037 3037 3037 3037
3054 3054 3054 3054 3054 3054 3054 3054 3054 3053 3053 3053 3053 3053 3053 3053 3053 3053 3053 3052 3052 3052 3052 3052 3051 3051 3051 3051 3050 3050 3049 3049 3049 3048 3048 3048 3048 3048 3048 3047 3047 3047 3047 3047 3046 3046 3046 3045 3045 3045 3045 3044 3044 3044 3043 3043 3043 3043 3042 3042 3042 3041 3041 3041 3040 3040 3040 3039 3039 3039 3038 3038 3038 3038 3038 3037 3037 3037 3036 3036 3036 3036 3035 3035 3035 3035
3053 3053 3053 3053 3053 3053 3053 3052 3052 3052 3052 3052 3052 3052 3052 3052 3051 3051 3051 3051 3051 3050 3050 3050 3050 3049 3049 3049 3049 3048 3048 3047 3047 3046 3046 3046 3046 3046 3046 3045 3045 3045 3045 3045 3044 3044 3044 3043 3043 3043 3043 3043 3042 3042 3042 3041 3041 3041 3040 3040 3040 3039 3039 3039 3038 3038 3038 3038 3037 3037 3037 3036 3036 3036 3036 3035 3035 3035 3034 3034 3034 3034 3033 3033 3033 3033
3051 3051 3051 3051 3051 3051 3051 3051 3051 3051 3051 3051 3051 3050 3050 3050 3050 3050 3049 3049 3049 3049 3048 3048 3048 3047 3047 3047 3047 3047 3046 3045 3045 3044 3044 3044 3044 3044 3044 3043 3043 3043 3043 3043 3043 3042 3042 3042 3041 3041 3041 3041 3040 3040 3040 3039 3039 3038 3038 3038 3038 3037 3037 3037 3036 3036 3036 3036 3035 3035 3035 3034 3034 3034 3034 3033 3033 3033 3033 3032 3032 3032 3032 3031 3031 3030
3049 3049 3049 3050 3050 3049 3049 3049 3049 3049 3049 3049 3049 3049 3049 3048 3048 3048 3048 3048 3047 3047 3047 3046 3046 3046 3045 3045 3045 3044 3044 3043 3043 3043 3042 3042 3042 3042 3042 3042 3041 3041 3041 3041 3040 3040 3040 3039 3039 3039 3039 3038 3038 3038 3038 3037 3037 3037 3036 3036 3036 3035 3035 3035 3034 3034 3034 3033 3033 3033 3033 3033 3032 3032 3032 3031 3031 3031 3030 3030 3030 3030 3029 3029 3029 3028
3048 3048 3048 3048 3048 3048 3048 3048 3048 3048 3048 3048 3048 3047 3047 3047 3047 3047 3046 3046 3046 3045 3045 3044 3044 3044 3043 3043 3043 3043 3042 3042 3041 3041 3041 3040 3040 3040 3040 3039 3039 3039 3039 3039 3038 3038 3038 3037 3037 3037 3037 3036 3036 3036 3036 3035 3035 3034 3034 3034 3033 3033 3033 3033 3033 3032 3032 3032 3031 3031 3031 3031 3030 3030 3030 3029 3029 3029 3028 3028 3028 3028 3027 3027 3027 3026
3047 3047 3047 3046 3046 3046 3046 3046 3046 3046 3046 3046 3046 3046 3045 3045 3045 3045 3045 3044 3044 3043 3043 3043 3042 3042 3042 3041 3041 3041 3040 3040 3039 3039 3039 3038 3038 3038 3038 3037 3037 3037 3037 3037 3036 3036 3036 3035 3035 3034 3034 3034 3034 3034 3033 3033 3033 3033 3032 3032 3032 3031 3031 3031 3031 3030 3030 3030 3029 3029 3029 3028 3028 3028 3028 3027 3027 3027 3026 3026 3026 3025 3025 3025 3024 3024
3045 3045 3045 3045 3044 3044 3044 3044 3044 3044 3044 3044 3044 3044 3044 3043 3043 3043 3043 3043 3043 3042 3042 3041 3041 3040 3040 3039 3039 3039 3038 3038 3038 3037 3037 3037 3036 3036 3035 3035 3035 3035 3034 3034 3034 3034 3033 3033 3033 3032 3032 3032 3032 3032 3031 3031 3031 3030 3030 3030 3029 3029 3029 3029 3028 3028 3028 3028 3028 3027 3027 3027 3026 3026 3026 3025 3025 3024 3024 3024 3023 3023 3023 3023 3022 3022
3043 3043 3043 3043 3043 3043 3043 3043 3043 3043 3043 3043 3042 3042 3042 3042 3042 3042 3042 3041 3041 3040 3040 3039 3039 3038 3038 3038 3037 3037 3037 3036 3036 3035 3035 3035 3034 3034 3033 3033 3033 3033 3033 3032 3032 3032 3031 3031 3030 3030 3030 3029 3029 3029 3029 3029 3028 3028 3028 3028 3027 3027 3027 3027 3026 3026 3026 3026 3025 3025 3025 3025 3024 3024 3024 3023 3023 3023 3022 3022 3021 3021 3021 3020 3020 3019
3042 3042 3042 3042 3041 3041 3041 3041 3041 3041 3041 3041 3041 3041 3040 3040 3040 3040 3040 3039 3039 3038 3038 3038 3037 3037 3036 3036 3036 3035 3035 3035 3034 3034 3033 3033 3033 3032 3032 3031 3031 3031 3030 3030 3030 3030 3029 3029 3028 3028 3028 3027 3027 3027 3027 3027 3026 3026 3026 3025 3025 3025 3024 3024 3024 3024 3024 3023 3023 3023 3023 3023 3022 3022 3022 3021 3021 3020 3020 3020 3019 3019 3018 3018 3018 3017
3040 3040 3040 3040 3040 3040 3040 3040 3040 3040 3040 3039 3039 3039 3039 3038 3038 3038 3038 3038 3037 3037 3037 3036 3035 3035 3034 3034 3034 3033 3033 3033 3033 3032 3031 3031 3031 3030 3030 3029 3029 3029 3028 3028 3028 3028 3027 3027 3026 3026 3025 3025 3025 3025 3025 3024 3024 3024 3023 3023 3023 3023 3023 3022 3022 3022 3021 3021 3021 3021 3021 3020 3020 3020 3019 3019 3019 3018 3018 3018 3017 3017 3016 3016 3015 3015
3038 3038 3038 3038 3038 3038 3038 3038 3038 3038 3038 3038 3038 3037 3037 3037 3037 3037 3036 3036 3036 3035 3035 3034 3034 3033 3033 3032 3032 3032 3032 3031 3031 3030 3030 3029 3029 3028 3028 3028 3027 3027 3027 3026 3026 3026 3025 3025 3024 3023 3023 3023 3023 3023 3023 3022 3022 3022 3022 3021 3021 3021 3020 3020 3020 3019 3019 3019 3018 3018 3018 3018 3018 3017 3017 3017 3016 3016 3016 3015 3015 3014 3014 3013 3013 3013
3037 3037 3037 3037 3037 3037 3037 3037 3037 3037 3037 3037 3036 3036 3035 3035 3035 3035 3035 3034 3034 3033 3033 3033 3032 3032 3031 3030 3030 3030 3029 3029 3029 3028 3028 3028 3027 3027 3026 3026 3025 3025 3024 3024 3024 3023 3023 3023 3022 3021 3021 3021 3021 3020 3020 3020 3020 3020 3019 3019 3019 3018 3018 3018 3018 3017 3017 3017 3016 3016 3016 3016 3015 3015 3015 3014 3014 3013 3013 3013 3013 3012 3012 3011 3011 3010
3036 3036 3036 3036 3036 3036 3036 3035 3035 3035 3035 3035 3035 3034 3034 3034 3033 3033 3033 3033 3032 3032 3031 3031 3030 3030 3029 3029 3028 3028 3028 3027 3027 3026 3026 3026 3025 3025 3024 3024 3023 3023 3023 3022 3022 3021 3021 3020 3020 3019 3018 3018 3018 3018 3018 3018 3018 3018 3017 3017 3017 3016 3016 3016 3015 3015 3015 3014 3014 3014 3013 3013 3013 3013 3012 3012 3011 3011 3011 3010 3010 3010 3009 3009 3009 3008
3034 3034 3034 3034 3034 3034 3034 3034 3034 3034 3033 3033 3033 3033 3033 3032 3032 3032 3031 3031 3030 3030 3029 3029 3028 3028 3028 3027 3026 3026 3026 3025 3025 3024 3024 3023 3023 3023 3022 3022 3021 3021 3021 3020 3020 3019 3019 3018 3017 3017 3016 3016 3016 3015 3016 3016 3015 3015 3015 3015 3014 3014 3014 3013 3013 3013 3013 3012 3012 3012 3011 3011 3010 3010 3010 3009 3009 3008 3008 3008 3008 3007 3007 3007 3006 3006
3033 3033 3033 3033 3033 3033 3032 3032 3032 3032 3032 3032 3031 3031 3031 3031 3030 3030 3029 3029 3028 3028 3028 3027 3027 3026 3026 3025 3024 3024 3023 3023 3023 3023 3022 3022 3021 3021 3020 3020 3019 3019 3018 3018 3018 3017 3017 3016 3015 3014 3014 3013 3013 3013 3013 3013 3013 3013 3013 3012 3012 3012 3012 3011 3011 3011 3010 3010 3010 3009 3009 3008 3008 3008 3007 3007 3006 3006 3006 3005 3005 3005 3004 3004 3004 3003
3031 3031 3031 3031 3031 3031 3031 3030 3030 3030 3030 3030 3029 3029 3029 3028 3028 3028 3028 3027 3027 3026 3026 3025 3025 3024 3024 3023 3023 3022 3021 3021 3021 3021 3020 3019 3019 3018 3018 3018 3017 3016 3016 3016 3015 3015 3014 3014 3013 3013 3012 3011 3010 3010 3010 3010 3010 3010 3010 3010 3010 3009 3009 3009 3009 3008 3008 3008 3007 3007 3007 3006 3006 3005 3005 3004 3004 3003 3003 3003 3003 3002 3002 3002 3001 3001
3029 3029 3029 3029 3029 3029 3029 3028 3028 3028 3028 3028 3027 3027 3027 3026 3026 3026 3025 3025 3024 3024 3023 3023 3023 3022 3022 3021 3020 3020 3019 3019 3019 3018 3018 3017 3017 3016 3016 3015 3014 3014 3013 3013 3013 3013 3012 3012 3011 3010 3009 3008 3008 3008 3008 3008 3008 3008 3008 3008 3007 3007 3007 3007 3006 3006 3006 3005 3005 3004 3004 3004 3003 3003 3002 3002 3001 3001 3001 3000 3000 3000 2999 2999 2999 2998
3028 3028 3028 3027 3027 3027 3027 3027 3026 3026 3026 3025 3025 3025 3024 3024 3024 3023 3023 3023 3022 3022 3021 3021 3020 3020 3019 3019 3018 3018 3017 3017 3016 3016 3015 3015 3014 3014 3013 3013 3012 3011 3011 3011 3010 3010 3010 3009 3009 3008 3008 3007 3005 3005 3004 3005 3005 3005 3005 3005 3005 3005 3004 3004 3004 3003 3003 3003 3003 3002 3002 3001 3001 3000 3000 2999 2999 2998 2998 2998 2997 2997 2997 2996 2996 2996
3026 3026 3026 3026 3025 3025 3025 3024 3024 3024 3023 3023 3023 3023 3022 3022 3022 3021 3021 3020 3020 3020 3019 3019 3018 3018 3017 3017 3016 3015 3015 3014 3014 3013 3013 3013 3012 3011 3011 3010 3010 3009 3008 3008 3008 3008 3008 3007 3007 3006 3005 3004 3003 3003 3002 3002 3002 3003 3003 3003 3002 3002 3002 3002 3001 3001 3001 3000 3000 3000 2999 2999 2998 2998 2998 2997 2997 2996 2996 2995 2995 2994 2994 2994 2993 2993
3024 3024 3024 3023 3023 3023 3023 3022 3022 3022 3022 3021 3021 3020 3020 3020 3019 3019 3018 3018 3018 3017 3017 3016 3016 3015 3015 3014 3014 3013 3013 3012 3012 3011 3011 3010 3009 3009 3008 3008 3007 3006 3006 3005 3005 3005 3005 3005 3004 3003 3003 3002 3002 3001 3000 2999 2999 2999 3000 3000 3000 2999 2999 2999 2999 2998 2998 2998 2998 2997 2997 2996 2996 2995 2995 2994 2994 2993 2993 2993 2992 2992 2991 2991 2991 2990
3022 3022 3022 3021 3021 3021 3020 3020 3020 3019 3019 3019 3018 3018 3018 3017 3017 3017 3016 3016 3015 3015 3014 3014 3013 3013 3012 3012 3011 3011 3010 3010 3009 3009 3008 3008 3007 3007 3006 3005 3004 3004 3003 3003 3003 3002 3002 3002 3002 3001 3001 3000 3000 2999 2998 2997 2997 2997 2997 2997 2997 2997 2997 2997 2996 2996 2996 2995 2995 2995 2994 2994 2993 2993 2993 2992 2992 2991 2991 2990 2989 2989 2988 2988 2988 2987
3020 3020 3020 3019 3019 3019 3018 3018 3018 3017 3017 3017 3016 3016 3015 3015 3015 3014 3014 3013 3013 3012 3012 3012 3011 3010 3010 3009 3009 3008 3008 3007 3007 3006 3006 3005 3004 3004 3003 3003 3002 3001 3001 3000 3000 3000 2999 2999 2999 2999 2999 2998 2998 2997 2996 2995 2994 2994 2994 2994 2994 2994 2994 2994 2994 2993 2993 2993 2993 2992 2992 2991 2991 2990 2990 2989 2989 2988 2988 2988 2987 2987 2986 2986 2985 2985
3018 3018 3018 3017 3017 3017 3016 3016 3015 3015 3015 3014 3014 3013 3013 3013 3012 3012 3011 3011 3010 3010 3010 3009 3009 3008 3008 3007 3006 3006 3005 3005 3004 3004 3003 3003 3002 3001 3001 3000 2999 2999 2998 2998 2998 2997 2997 2997 2997 2996 2996 2996 2996 2995 2994 2993 2992 2991 2991 2991 2991 2991 2992 2992 2991 2991 2991 2990 2990 2990 2989 2989 2988 2988 2988 2987 2987 2986 2986 2985 2984 2984 2983 2983 2983 2982
3016 3016 3016 3015 3015 3015 3014 3014 3013 3013 3013 3012 3012 3011 3011 3011 3010 3010 3009 3009 3008 3008 3008 3007 3007 3006 3005 3004 3004 3003 3002 3002 3001 3001 3000 3000 2999 2998 2998 2997 2997 2996 2996 2995 2995 2995 2994 2994 2994 2994 2994 2994 2994 2993 2993 2992 2990 2989 2989 2988 2988 2988 2988 2988 2988 2988 2988 2988 2987 2987 2987 2986 2986 2985 2985 2984 2984 2983 2983 2983 2982 2982 2981 2980 2980 2979
3014 3014 3014 3013 3013 3013 3013 3012 3012 3011 3011 3010 3010 3009 3009 3008 3008 3008 3007 3007 3006 3006 3005 3005 3004 3004 3003 3002 3001 3000 3000 2999 2998 2998 2998 2997 2996 2996 2995 2995 2994 2994 2993 2993 2993 2992 2992 2992 2992 2991 2991 2991 2991 2991 2991 2990 2988 2987 2986 2986 2986 2986 2986 2985 2985 2985 2985 2985 2984 2984 2984 2983 2983 2983 2982 2982 2981 2981 2980 2980 2979 2979 2978 2978 2977 2977
3012 3012 3012 3012 3011 3011 3011 3010 3010 3009 3009 3008 3008 3008 3007 3007 3006 3006 3005 3005 3004 3003 3003 3003 3002 3002 3001 3000 2999 2998 2997 2996 2996 2995 2995 2994 2994 2993 2993 2992 2992 2991 2991 2991 2990 2990 2990 2989 2989 2989 2989 2989 2989 2989 2988 2988 2986 2985 2984 2984 2984 2984 2983 2983 2982 2982 2982 2982 2982 2981 2981 2981 2980 2980 2979 2979 2978 2978 2978 2977 2977 2976 2976 2975 2974 2974
3010 3010 3010 3010 3009 3009 3009 3008 3008 3008 3007 3007 3006 3006 3005 3005 3004 3003 3003 3003 3002 3001 3001 3000 3000 2999 2998 2997 2996 2995 2994 2994 2993 2993 2992 2992 2991 2990 2990 2989 2989 2989 2988 2988 2988 2988 2988 2987 2987 2987 2986 2986 2986 2986 2986 2985 2984 2983 2982 2982 2982 2982 2982 2981 2980 2979 2979 2978 2978 2978 2978 2978 2978 2977 2977 2976 2976 2975 2975 2974 2974 2973 2973 2972 2972 2971
3008 3008 3008 3008 3007 3007 3007 3006 3006 3006 3005 3004 3004 3003 3003 3003 3002 3002 3001 3000 3000 2999 2998 2998 2997 2997 2996 2995 2994 2993 2992 2991 2990 2989 2989 2988 2988 2988 2987 2987 2987 2986 2986 2986 2986 2985 2985 2985 2985 2984 2984 2984 2984 2983 2983 2983 2982 2981 2980 2980 2980 2980 2979 2978 2978 2977 2976 2976 2976 2975 2975 2975 2975 2974 2974 2973 2973 2973 2972 2972 2971 2970 2970 2969 2968 2968
3006 3006 3006 3005 3005 3005 3005 3004 3004 3003 3003 3002 3002 3001 3001 3000 3000 2999 2999 2998 2998 2997 2996 2996 2995 2994 2993 2993 2992 2990 2989 2988 2987 2986 2986 2985 2985 2985 2984 2984 2984 2984 2983 2983 2983 2983 2983 2983 2983 2982 2982 2982 2982 2981 2980 2980 2979 2978 2978 2978 2978 2977 2977 2976 2975 2974 2974 2973 2973 2973 2972 2972 2972 2972 2971 2971 2970 2970 2969 2969 2968 2967 2967 2966 2965 2965
3004 3004 3004 3003 3003 3003 3003 3002 3002 3001 3001 3000 3000 2999 2999 2998 2998 2997 2996 2996 2995 2994 2994 2993 2993 2992 2991 2990 2989 2988 2987 2986 2984 2983 2983 2982 2982 2982 2982 2982 2981 2981 2981 2981 2981 2980 2980 2980 2980 2980 2980 2979 2979 2979 2978 2977 2977 2976 2976 2975 2975 2975 2974 2973 2972 2972 2971 2971 2970 2970 2970 2969 2969 2968 2968 2968 2968 2968 2967 2966 2965 2964 2963 2963 2962 2962
3003 3002 3002 3001 3001 3001 3000 3000 2999 2999 2998 2998 2998 2997 2996 2996 2995 2995 2994 2993 2993 2992 2991 2991 2990 2989 2988 2987 2986 2985 2984 2983 2982 2981 2980 2979 2979 2979 2979 2979 2979 2978 2978 2978 2978 2978 2978 2978 2978 2977 2977 2977 2977 2976 2976 2975 2974 2974 2973 2973 2973 2972 2972 2971 2970 2969 2968 2968 2968 2967 2967 2967 2966 2966 2965 2965 2965 2965 2965 2964 2963 2962 2961 2960 2959 2959
3000 3000 3000 2999 2999 2998 2998 2998 2998 2997 2997 2996 2995 2994 2994 2993 2993 2992 2991 2991 2990 2989 2988 2988 2987 2987 2986 2985 2984 2983 2982 2980 2979 2978 2978 2977 2976 2976 2976 2976 2976 2976 2976 2975 2975 2975 2975 2975 2975 2975 2974 2974 2973 2973 2973 2973 2972 2972 2971 2971 2970 2969 2969 2968 2967 2966 2966 2965 2965 2965 2964 2964 2963 2963 2963 2963 2963 2963 2963 2962 2962 2960 2959 2958 2957 2956
2998 2998 2998 2997 2997 2997 2996 2996 2995 2995 2994 2993 2993 2992 2991 2991 2990 2989 2988 2988 2987 2987 2986 2985 2985 2984 2983 2982 2981 2980 2979 2978 2977 2976 2975 2974 2974 2974 2973 2973 2973 2973 2973 2973 2973 2972 2972 2972 2973 2972 2972 2971 2970 2970 2970 2970 2970 2969 2969 2968 2967 2967 2966 2966 2965 2964 2963 2963 2962 2962 2961 2961 2960 2960 2959 2959 2959 2960 2960 2960 2959 2958 2957 2956 2954 2953